Location: Poughquag
(41.6090°N, 73.6820°W)
Time: 02:25:54
(UTC-04:00)

Vanguard 1 - Pass Details

Date: 03 June 2020
Orbit: 650 x 3833 km, 34.2° (Epoch: 06 July)

Event Time Altitude Azimuth Distance (km) Brightness Sun altitude
Rises 06:48:03 0° 249° (WSW) 5,901 13.4 13.8°
Reaches altitude 10° 06:51:19 10° 246° (WSW) 5,234 13.2 14.4°
Maximum altitude 07:08:22 68° 169° (SSE) 3,697 13.2 17.4°
Drops below altitude 10° 07:31:45 10° 93° (E) 6,848 16.1 21.7°
Sets 07:36:48 0° 91° (E) 7,718 16.0 22.6°
